Preview of NWS' New Version of Forecast
This preview is not operational and should not be used for support decisions.

Regional Weather Roundup (RWR)

Issued by National Weather Service (NWS)

                            
000
ASUS43 KTOP 231008
RWRKS 

WEATHER ROUNDUP FOR KANSAS
NATIONAL WEATHER SERVICE GOODLAND KS
500 AM CDT FRI AUG 23 2019

NOTE:  "FAIR" INDICATES FEW OR NO CLOUDS BELOW 12,000 FEET WITH NO
SIGNIFICANT WEATHER AND/OR OBSTRUCTIONS TO VISIBILITY.

KSZ001>006-013>018-027>032-041>047-231100-
NORTHWEST KANSAS
  
CITY           SKY/WX    TMP DP  RH WIND       PRES   REMARKS
GOODLAND       FAIR      63  62  97 S6        30.00F                  
HAYS           CLOUDY    68  68 100 SE9       29.78R                  
HILL CITY      CLOUDY    70  68  93 CALM      30.03R                  
RUSSELL        CLEAR     67  65  93 SE9       29.98R                  
$$

KSZ061>065-074>080-084>089-231100-
SOUTHWEST KANSAS
  
CITY           SKY/WX    TMP DP  RH WIND       PRES   REMARKS
DODGE CITY     CLOUDY    68  66  93 SE12      30.00R                  
ELKHART        FAIR      67  66  96 SE12      29.97S                  
GARDEN CITY    LGT RAIN  65  65 100 N13       30.01R FOG              
GREAT BEND     CLOUDY    68  67  96 E7        29.99S                  
LIBERAL        CLOUDY    68  67  96 SE13      29.98S                  
PRATT          CLOUDY    69  67  94 E7        30.00R FOG              
$$

KSZ066>073-081>083-090>101-231100-
SOUTHEAST KANSAS
  
CITY           SKY/WX    TMP DP  RH WIND       PRES   REMARKS
CHANUTE        CLEAR     73  70  90 E5        29.97R                  
COFFEYVILLE    MOCLDY    71  68  90 SE3       29.95S                  
HUTCHINSON     CLEAR     69  67  93 E8        29.98R                  
MEDICINE LODGE   N/A     70  69  97 E7        29.96R                  
NEWTON         MOCLDY    68  67  96 E6        30.01R                  
PARSONS        MOCLDY    72  70  93 VRB3      29.97S                  
WICHITA INTL   PTCLDY    72  69  90 E8        29.97R                  
WICHITA JABRA  MOCLDY    69  69 100 E5        29.98R                  
WICHITA MCCONL CLEAR     71  68  90 E7        29.98R                  
WINFIELD       CLEAR     69  67  93 E5        29.98R                  
$$

KSZ007>012-019>026-033>040-048>060-102>105-231100-
NORTHEAST KANSAS
  
CITY           SKY/WX    TMP DP  RH WIND       PRES   REMARKS
CONCORDIA      CLOUDY    72  70  93 E6        30.01S FOG              
EMPORIA        PTCLDY    70  70 100 E6        29.99R                  
LAWRENCE       CLOUDY    74  69  85 E5        30.01R                  
MANHATTAN      CLEAR     71  69  93 E3        30.00R                  
MARYSVILLE     CLEAR     68  66  94 E6        30.03R                  
OLATHE IND     MOCLDY    72  69  90 E9        30.02R                  
OLATHE EXE     CLOUDY    71  69  93 E8        30.02R                  
SALINA         CLEAR     70  66  87 E3        30.00R                  
TOPEKA BILLARD CLOUDY    72  68  87 E8        30.00R                  
TOPEKA FORBES  PTCLDY    73  69  87 E6        30.00R                  
$$